#�ϑ�����,���ϕ���,���ϕ���,�ő啗��,�ő啗����������,�ő�u�ԕ���,�ő�u�ԕ�����������
#(�N����),(m/s)   ,(16����),(m/s)   ,(16����)        ,(m/s)       ,(16����)            
2017/11/5 0:01,1.6,16,1.6,16,3.2,16
2017/11/5 0:02,1.8,16,1.8,16,4.3,14
2017/11/5 0:03,1.8,16,1.8,16,2.5,10
2017/11/5 0:04,1.7,16,1.8,16,3,1
2017/11/5 0:05,1.8,15,1.8,16,3.8,14
2017/11/5 0:06,1.9,15,1.9,15,4.2,10
2017/11/5 0:07,2,14,2,15,5.1,10
2017/11/5 0:08,2,14,2,15,5.2,9
2017/11/5 0:09,2,14,2.1,14,5.2,10
2017/11/5 0:10,2,14,2.1,14,4.2,15
2017/11/5 0:11,1.9,14,2,14,2.4,1
2017/11/5 0:12,1.9,14,1.9,14,4.4,15
2017/11/5 0:13,2,14,2,14,2.5,16
2017/11/5 0:14,2,14,2,14,1.6,14
2017/11/5 0:15,1.9,13,2,14,1.3,12
2017/11/5 0:16,1.7,13,1.9,14,1.6,12
2017/11/5 0:17,1.6,14,1.7,14,1.5,16
2017/11/5 0:18,1.6,14,1.6,14,5.5,15
2017/11/5 0:19,1.7,14,1.7,14,5.5,16
2017/11/5 0:20,1.8,14,1.8,14,3.6,16
2017/11/5 0:21,2.1,14,2.1,14,8.1,16
2017/11/5 0:22,2.2,14,2.2,14,6.3,10
2017/11/5 0:23,2.4,13,2.4,13,6.7,9
2017/11/5 0:24,2.4,13,2.5,13,3.3,10
2017/11/5 0:25,2.4,13,2.4,13,1.4,6
2017/11/5 0:26,2.5,14,2.5,13,4.1,15
2017/11/5 0:27,2.7,14,2.7,14,5.4,15
2017/11/5 0:28,2.6,14,2.7,14,3.9,15
2017/11/5 0:29,2.6,13,2.6,14,5.7,13
2017/11/5 0:30,2.7,13,2.7,14,5,1
2017/11/5 0:31,2.5,13,2.7,14,5.5,16
2017/11/5 0:32,2.6,14,2.6,14,6.1,16
2017/11/5 0:33,2.7,14,2.7,14,10.1,16
2017/11/5 0:34,3.3,15,3.3,15,12.1,16
2017/11/5 0:35,3.7,15,3.7,15,12.3,16
2017/11/5 0:36,4,15,4,15,10.8,15
2017/11/5 0:37,4.2,15,4.2,15,7.1,16
2017/11/5 0:38,4.7,15,4.7,15,10.3,15
2017/11/5 0:39,4.8,16,4.8,15,9.5,16
2017/11/5 0:40,4.8,15,4.9,15,5.2,14
2017/11/5 0:41,5.1,16,5.1,16,11.4,15
2017/11/5 0:42,5.2,16,5.2,16,8.2,16
2017/11/5 0:43,4.9,16,5.1,16,4.7,16
2017/11/5 0:44,4.5,15,4.8,16,5.6,15
2017/11/5 0:45,4.6,15,4.7,16,11.1,14
2017/11/5 0:46,4.4,15,4.6,16,6.1,14
2017/11/5 0:47,4.4,15,4.4,16,6.1,16
2017/11/5 0:48,4.3,15,4.3,16,8.4,16
2017/11/5 0:49,4.1,15,4.3,16,7,1
2017/11/5 0:50,4.2,15,4.2,16,9,14
2017/11/5 0:51,4.2,15,4.4,16,9.5,14
2017/11/5 0:52,4.2,15,4.2,16,6.8,15
2017/11/5 0:53,4.4,15,4.4,16,7.4,15
2017/11/5 0:54,4.4,15,4.4,15,7.6,16
2017/11/5 0:55,4.3,15,4.4,15,6.5,13
2017/11/5 0:56,4.2,15,4.2,15,4.2,16
2017/11/5 0:57,4.1,15,4.2,15,5,15
2017/11/5 0:58,4,15,4.2,15,7.1,15
2017/11/5 0:59,4,15,4,15,4.1,13
2017/11/5 1:00,3.8,15,4,15,5.5,15
2017/11/5 1:01,3.5,15,3.7,15,4.4,16
2017/11/5 1:02,3.3,15,3.4,15,5.2,1
2017/11/5 1:03,3.3,15,3.3,15,9.3,1
2017/11/5 1:04,3.2,15,3.4,15,5.4,16
2017/11/5 1:05,3.1,15,3.2,15,5,12
2017/11/5 1:06,3,15,3.1,15,3.3,12
2017/11/5 1:07,3,14,3,15,5.7,16
2017/11/5 1:08,3,14,3,15,11.5,16
2017/11/5 1:09,3.4,14,3.4,15,10.3,16
2017/11/5 1:10,3.6,15,3.6,15,6.3,15
2017/11/5 1:11,3.8,15,3.8,15,7.9,15
2017/11/5 1:12,3.9,15,3.9,15,5.8,13
2017/11/5 1:13,3.9,14,3.9,15,4.9,13
2017/11/5 1:14,3.9,14,3.9,15,5,11
2017/11/5 1:15,3.8,14,3.9,15,3.7,12
2017/11/5 1:16,3.8,14,3.8,15,4.7,16
2017/11/5 1:17,3.8,14,3.8,15,7.1,14
2017/11/5 1:18,3.6,14,3.9,15,6.4,15
2017/11/5 1:19,3.1,14,3.5,15,3.6,16
2017/11/5 1:20,3,13,3.1,15,3.8,14
2017/11/5 1:21,2.8,13,2.9,15,4.2,12
2017/11/5 1:22,3,13,3,15,9.5,15
2017/11/5 1:23,3.2,13,3.2,14,10.7,15
2017/11/5 1:24,3.5,14,3.5,14,8.9,14
2017/11/5 1:25,3.5,14,3.5,14,6.2,13
2017/11/5 1:26,3.7,14,3.7,14,5.7,15
2017/11/5 1:27,3.8,14,3.8,14,6.9,14
2017/11/5 1:28,3.9,14,3.9,14,6.5,16
2017/11/5 1:29,4.1,14,4.1,14,10.2,15
2017/11/5 1:30,4.3,14,4.3,14,9,14
2017/11/5 1:31,4.4,15,4.4,15,8.2,16
2017/11/5 1:32,4.3,15,4.4,15,7.4,14
2017/11/5 1:33,4.1,15,4.3,15,8.6,15
2017/11/5 1:34,3.9,15,4,15,8.2,16
2017/11/5 1:35,4.1,15,4.1,15,7.4,13
2017/11/5 1:36,4.1,15,4.1,15,6.4,14
2017/11/5 1:37,4.3,15,4.3,15,10.1,15
2017/11/5 1:38,4.3,15,4.3,15,6.9,13
2017/11/5 1:39,4.1,15,4.3,15,6.5,12
2017/11/5 1:40,4.1,15,4.2,15,6.4,14
2017/11/5 1:41,4.1,14,4.2,15,7.1,14
2017/11/5 1:42,4.1,14,4.2,15,7.6,16
2017/11/5 1:43,4.1,14,4.1,15,7.2,15
2017/11/5 1:44,4.1,14,4.1,15,6.7,15
2017/11/5 1:45,3.9,14,4.1,15,4.5,14
2017/11/5 1:46,3.9,14,3.9,15,8.4,12
2017/11/5 1:47,3.7,14,4,15,7.7,12
2017/11/5 1:48,3.8,14,3.8,15,7.1,14
2017/11/5 1:49,3.9,14,3.9,15,5.7,1
2017/11/5 1:50,3.8,15,3.9,14,8.3,16
2017/11/5 1:51,3.8,15,3.8,14,10.7,14
2017/11/5 1:52,4.3,15,4.3,15,12.6,15
2017/11/5 1:53,4.6,15,4.6,15,11,15
2017/11/5 1:54,4.7,15,4.7,15,9.4,15
2017/11/5 1:55,4.8,15,4.8,15,7,16
2017/11/5 1:56,4.9,15,5,15,8.1,14
2017/11/5 1:57,4.9,15,4.9,15,7.8,12
2017/11/5 1:58,5,15,5,15,8.6,12
2017/11/5 1:59,4.8,15,5,15,5.2,16
2017/11/5 2:00,4.8,14,4.9,15,6.2,12
2017/11/5 2:01,4.7,14,4.8,15,4.9,12
2017/11/5 2:02,4.1,14,4.6,15,6.3,15
2017/11/5 2:03,3.9,14,4.1,15,6.9,15
2017/11/5 2:04,3.6,14,3.9,15,8.6,13
2017/11/5 2:05,3.7,14,3.7,15,6.3,13
2017/11/5 2:06,3.7,13,3.7,15,7.7,12
2017/11/5 2:07,3.6,13,3.8,15,9,12
2017/11/5 2:08,3.4,13,3.6,15,5.4,10
2017/11/5 2:09,3.6,13,3.6,15,7.9,13
2017/11/5 2:10,3.6,13,3.7,14,6.3,13
2017/11/5 2:11,3.7,13,3.7,14,5.4,14
2017/11/5 2:12,3.7,14,3.7,14,5.7,15
2017/11/5 2:13,3.7,14,3.8,14,6.4,14
2017/11/5 2:14,3.6,14,3.7,13,6.2,12
2017/11/5 2:15,3.7,14,3.7,13,9.7,16
2017/11/5 2:16,3.6,14,3.7,13,7.2,15
2017/11/5 2:17,3.6,15,3.6,14,9.1,16
2017/11/5 2:18,4,15,4,15,10.2,15
2017/11/5 2:19,4,15,4,15,7.4,16
2017/11/5 2:20,3.9,15,4,15,8.2,15
2017/11/5 2:21,3.9,15,3.9,15,5.6,15
2017/11/5 2:22,4,15,4.1,15,7.7,14
2017/11/5 2:23,4,15,4,15,5.1,1
2017/11/5 2:24,4.1,15,4.2,15,6.4,14
2017/11/5 2:25,4,15,4.1,15,5.1,14
2017/11/5 2:26,4.2,15,4.2,15,11.7,16
2017/11/5 2:27,4.3,15,4.3,15,7.7,16
2017/11/5 2:28,4.2,15,4.2,15,8.3,15
2017/11/5 2:29,4.2,15,4.3,15,7.2,16
2017/11/5 2:30,4.2,15,4.2,15,4.9,15
2017/11/5 2:31,4.1,15,4.2,15,4.1,14
2017/11/5 2:32,3.9,15,4,15,6.4,16
2017/11/5 2:33,4,15,4,15,6.5,14
2017/11/5 2:34,4.2,15,4.2,15,8.7,15
2017/11/5 2:35,4.5,15,4.5,15,10.3,16
2017/11/5 2:36,4.3,15,4.5,15,6.9,14
2017/11/5 2:37,4.1,15,4.3,15,6.8,15
2017/11/5 2:38,3.8,15,4.1,15,5.2,15
2017/11/5 2:39,3.8,15,3.8,15,6.8,15
2017/11/5 2:40,4,15,4,15,8.5,16
2017/11/5 2:41,4.2,15,4.2,15,6.8,15
2017/11/5 2:42,4.3,15,4.4,15,6.9,14
2017/11/5 2:43,4.5,15,4.5,15,10.3,15
2017/11/5 2:44,4.4,15,4.5,15,6.2,14
2017/11/5 2:45,4.4,15,4.5,15,9.8,15
2017/11/5 2:46,4.4,15,4.4,15,9.7,14
2017/11/5 2:47,4.5,15,4.5,15,9,16
2017/11/5 2:48,4.7,15,4.7,15,8.1,15
2017/11/5 2:49,4.7,15,4.8,15,7.5,16
2017/11/5 2:50,4.8,15,4.8,15,9.3,16
2017/11/5 2:51,4.7,15,4.8,15,6,16
2017/11/5 2:52,4.6,15,4.7,15,8.7,14
2017/11/5 2:53,4.6,15,4.6,15,10.6,16
2017/11/5 2:54,4.6,15,4.7,15,7,14
2017/11/5 2:55,4.5,15,4.6,15,9.2,16
2017/11/5 2:56,4.6,15,4.7,15,10.8,16
2017/11/5 2:57,4.7,15,4.7,15,7.8,14
2017/11/5 2:58,5,15,5,15,12.6,15
2017/11/5 2:59,5.2,15,5.2,15,10.8,15
2017/11/5 3:00,5,15,5.2,15,7.2,15
2017/11/5 3:01,5,15,5,15,8.3,15
2017/11/5 3:02,5.2,15,5.2,15,9.3,15
2017/11/5 3:03,5.2,15,5.2,15,11,15
2017/11/5 3:04,5.5,15,5.5,15,11.6,16
2017/11/5 3:05,5.4,15,5.6,15,6.5,15
2017/11/5 3:06,5,15,5.3,15,2.7,16
2017/11/5 3:07,4.8,15,4.9,15,10.8,15
2017/11/5 3:08,4.6,15,4.8,15,6.4,15
2017/11/5 3:09,4.3,15,4.5,15,7.5,14
2017/11/5 3:10,4.4,15,4.4,15,8.1,15
2017/11/5 3:11,4.3,15,4.5,15,4.4,12
2017/11/5 3:12,4,15,4.3,15,4.1,15
2017/11/5 3:13,3.8,15,4.1,15,6.4,14
2017/11/5 3:14,3.3,15,3.7,15,5.4,15
2017/11/5 3:15,3.1,15,3.3,15,2.1,16
2017/11/5 3:16,3.5,15,3.5,15,9.8,15
2017/11/5 3:17,3.3,15,3.6,15,6.3,16
2017/11/5 3:18,3,15,3.3,15,3.1,16
2017/11/5 3:19,2.7,15,3,15,1.6,12
2017/11/5 3:20,2.6,15,2.6,15,5,1
2017/11/5 3:21,2.8,15,2.8,15,6.7,15
2017/11/5 3:22,3,15,3,15,9.9,15
2017/11/5 3:23,3.1,16,3.1,15,9.1,15
2017/11/5 3:24,3.5,15,3.5,15,9.3,15
2017/11/5 3:25,3.6,15,3.6,15,7.9,16
2017/11/5 3:26,3.6,15,3.8,15,9.3,15
2017/11/5 3:27,3.8,15,3.8,15,8.6,16
2017/11/5 3:28,4.2,15,4.2,15,9.5,15
2017/11/5 3:29,4.7,15,4.7,15,10.2,16
2017/11/5 3:30,4.7,15,4.8,15,6.8,13
2017/11/5 3:31,4.8,15,4.8,15,9.1,15
2017/11/5 3:32,4.9,15,4.9,15,9.7,15
2017/11/5 3:33,4.8,15,5,15,8.7,14
2017/11/5 3:34,4.6,15,4.8,15,6.9,16
2017/11/5 3:35,4.6,15,4.6,15,5.7,16
2017/11/5 3:36,4.4,15,4.6,15,6,14
2017/11/5 3:37,4.4,15,4.5,15,7.2,15
2017/11/5 3:38,4.5,15,4.5,15,8.9,16
2017/11/5 3:39,4.2,15,4.5,15,4.1,16
2017/11/5 3:40,4.3,15,4.3,15,9.5,15
2017/11/5 3:41,4.3,15,4.3,15,8.1,2
2017/11/5 3:42,4.3,15,4.4,15,7.7,15
2017/11/5 3:43,4.2,15,4.2,15,5.1,14
2017/11/5 3:44,4.1,15,4.1,15,4.9,12
2017/11/5 3:45,4.3,15,4.3,15,8.6,15
2017/11/5 3:46,4.4,15,4.4,15,6.3,15
2017/11/5 3:47,4.4,15,4.4,15,7.7,1
2017/11/5 3:48,4.1,15,4.4,15,5.6,1
2017/11/5 3:49,4.4,15,4.4,15,8.4,15
2017/11/5 3:50,4.3,15,4.4,15,6.9,15
2017/11/5 3:51,4.3,15,4.3,15,6.3,16
2017/11/5 3:52,4.2,15,4.2,15,7.1,15
2017/11/5 3:53,4.1,15,4.2,15,6.9,15
2017/11/5 3:54,4.2,15,4.2,15,5.4,15
2017/11/5 3:55,4,15,4.1,15,6.3,15
2017/11/5 3:56,4,15,4.1,15,5.7,16
2017/11/5 3:57,3.7,15,4,15,2.9,15
2017/11/5 3:58,3.6,15,3.7,15,4.4,12
2017/11/5 3:59,3.3,15,3.5,15,5.4,16
2017/11/5 4:00,3.3,15,3.3,15,7,1
2017/11/5 4:01,3.2,15,3.3,15,4.9,16
2017/11/5 4:02,3.1,15,3.2,15,6.4,15
2017/11/5 4:03,3.1,15,3.1,15,5,1
2017/11/5 4:04,3,15,3.1,15,5,15
2017/11/5 4:05,2.9,15,3,15,7,14
2017/11/5 4:06,2.9,15,2.9,15,3.8,16
2017/11/5 4:07,2.9,15,2.9,15,3.9,15
2017/11/5 4:08,3,16,3,15,3.6,16
2017/11/5 4:09,2.8,16,2.9,15,2.5,16
2017/11/5 4:10,2.4,16,2.8,15,1,16
2017/11/5 4:11,2.2,16,2.4,15,0.6,8
2017/11/5 4:12,1.8,16,2.1,15,0.9,16
2017/11/5 4:13,1.7,15,1.8,15,3.7,16
2017/11/5 4:14,1.7,15,1.7,15,5.8,15
2017/11/5 4:15,1.6,15,1.7,15,4.9,15
2017/11/5 4:16,1.5,15,1.6,15,3.3,15
2017/11/5 4:17,1.5,15,1.5,15,2.7,13
2017/11/5 4:18,1.5,15,1.5,16,3.8,16
2017/11/5 4:19,1.7,15,1.7,16,4.5,16
2017/11/5 4:20,1.8,15,1.8,16,2.6,16
2017/11/5 4:21,1.8,15,1.8,16,2.6,15
2017/11/5 4:22,2,15,2,15,2.7,14
2017/11/5 4:23,2,15,2.1,15,3.5,16
2017/11/5 4:24,1.8,15,2,15,1.8,16
2017/11/5 4:25,1.6,15,1.8,15,2.2,12
2017/11/5 4:26,1.6,14,1.6,15,1.8,12
2017/11/5 4:27,1.5,14,1.6,15,1.3,11
2017/11/5 4:28,1.3,14,1.5,15,0.5,15
2017/11/5 4:29,1.1,14,1.2,15,1.9,12
2017/11/5 4:30,1.3,14,1.3,15,3.7,1
2017/11/5 4:31,1.3,14,1.3,15,2.9,16
2017/11/5 4:32,1.3,14,1.3,15,1.8,14
2017/11/5 4:33,1.1,14,1.3,15,1.8,14
2017/11/5 4:34,1.2,14,1.2,15,1.6,15
2017/11/5 4:35,1.2,14,1.2,15,3,15
2017/11/5 4:36,1.3,14,1.3,14,3.1,15
2017/11/5 4:37,1.5,15,1.5,14,4.7,16
2017/11/5 4:38,1.7,15,1.7,14,4.5,14
2017/11/5 4:39,1.9,15,1.9,15,3.7,15
2017/11/5 4:40,1.8,15,1.9,15,4.7,15
2017/11/5 4:41,2,15,2,15,4.3,14
2017/11/5 4:42,2.1,15,2.1,15,4.7,16
2017/11/5 4:43,2.3,15,2.3,15,6,16
2017/11/5 4:44,2.6,15,2.6,15,5.6,14
2017/11/5 4:45,2.8,15,2.8,15,6.3,16
2017/11/5 4:46,3,15,3,15,6.5,15
2017/11/5 4:47,3.1,15,3.1,15,6.8,16
2017/11/5 4:48,3.4,15,3.4,15,8.4,15
2017/11/5 4:49,3.4,15,3.4,15,4.5,15
2017/11/5 4:50,3.4,15,3.4,15,3.1,15
2017/11/5 4:51,3.5,15,3.5,15,6.7,16
2017/11/5 4:52,3.6,15,3.6,15,5.8,16
2017/11/5 4:53,3.4,15,3.6,15,3.7,14
2017/11/5 4:54,3.2,15,3.4,15,3.7,15
2017/11/5 4:55,2.9,15,3.2,15,1.8,13
2017/11/5 4:56,2.8,15,2.9,15,3.8,14
2017/11/5 4:57,2.6,15,2.8,15,2.6,14
2017/11/5 4:58,2.2,14,2.6,15,2.2,15
2017/11/5 4:59,1.9,15,2.1,15,1.1,1
2017/11/5 5:00,2,15,2,15,2.9,12
2017/11/5 5:01,1.6,14,2,15,2.4,11
2017/11/5 5:02,1.5,14,1.6,15,2.5,9
2017/11/5 5:03,1.4,13,1.5,15,1.6,13
2017/11/5 5:04,1.2,13,1.3,15,0.6,2
2017/11/5 5:05,1.2,13,1.2,15,1.3,6
2017/11/5 5:06,1.1,12,1.2,15,3.2,6
2017/11/5 5:07,1.2,11,1.2,15,2.9,5
2017/11/5 5:08,1.3,8,1.3,14,3,5
2017/11/5 5:09,1.4,8,1.4,15,2.2,5
2017/11/5 5:10,1.3,7,1.4,15,2.7,6
2017/11/5 5:11,1.4,7,1.4,14,2.6,9
2017/11/5 5:12,1.4,7,1.4,14,2.4,9
2017/11/5 5:13,1.5,7,1.5,7,2.6,9
2017/11/5 5:14,1.6,7,1.6,7,2.1,9
2017/11/5 5:15,1.6,8,1.6,7,2.6,9
2017/11/5 5:16,1.6,8,1.7,8,3.8,9
2017/11/5 5:17,1.6,8,1.6,8,3.8,10
2017/11/5 5:18,1.6,9,1.6,8,3,9
2017/11/5 5:19,1.6,9,1.6,8,2.6,8
2017/11/5 5:20,1.5,9,1.6,8,1.5,9
2017/11/5 5:21,1.4,10,1.5,8,1.1,13
2017/11/5 5:22,1.3,9,1.4,8,1,4
2017/11/5 5:23,1.2,9,1.3,8,1.3,4
2017/11/5 5:24,1.1,8,1.2,8,0.5,6
2017/11/5 5:25,1,8,1.1,8,0.8,16
2017/11/5 5:26,0.8,8,1,8,0.1,3
2017/11/5 5:27,0.7,7,0.8,8,0.8,8
2017/11/5 5:28,0.5,5,0.6,9,1.3,5
2017/11/5 5:29,0.5,4,0.5,9,1.6,3
2017/11/5 5:30,0.5,3,0.5,9,1.4,4
2017/11/5 5:31,0.5,4,0.5,10,1.3,6
2017/11/5 5:32,0.5,4,0.6,9,0.9,5
2017/11/5 5:33,0.4,4,0.5,9,0.5,13
2017/11/5 5:34,0.4,3,0.4,8,0.6,14
2017/11/5 5:35,0.4,3,0.4,8,0.4,15
2017/11/5 5:36,0.5,3,0.5,7,1,4
2017/11/5 5:37,0.6,3,0.6,7,1.8,4
2017/11/5 5:38,0.6,3,0.6,4,0.8,1
2017/11/5 5:39,0.6,2,0.6,4,1.4,16
2017/11/5 5:40,0.5,1,0.6,4,1.4,14
2017/11/5 5:41,0.5,16,0.5,4,1.3,13
2017/11/5 5:42,0.6,15,0.6,3,1.6,13
2017/11/5 5:43,0.7,15,0.7,15,1.5,13
2017/11/5 5:44,0.8,15,0.8,15,1.4,13
2017/11/5 5:45,0.8,15,0.8,15,0.9,4
2017/11/5 5:46,0.9,15,0.9,15,2.1,2
2017/11/5 5:47,0.9,15,1,15,2.2,3
2017/11/5 5:48,1,15,1,15,1.4,3
2017/11/5 5:49,0.9,15,1,15,1.5,5
2017/11/5 5:50,0.9,15,0.9,15,0.6,14
2017/11/5 5:51,0.9,15,0.9,15,1.5,13
2017/11/5 5:52,0.8,15,0.9,15,1.3,13
2017/11/5 5:53,0.7,16,0.8,15,0.4,15
2017/11/5 5:54,0.6,1,0.7,15,0.1,3
2017/11/5 5:55,0.7,1,0.7,15,1.4,16
2017/11/5 5:56,0.5,16,0.6,15,1,1
2017/11/5 5:57,0.4,16,0.5,15,0.4,1
2017/11/5 5:58,0.4,16,0.4,15,0.9,4
2017/11/5 5:59,0.4,1,0.4,15,1.4,3
2017/11/5 6:00,0.4,1,0.4,15,0.6,2
2017/11/5 6:01,0.3,1,0.4,15,0.1,10
2017/11/5 6:02,0.3,2,0.3,15,1.6,1
2017/11/5 6:03,0.4,2,0.4,16,1.6,16
2017/11/5 6:04,0.5,1,0.5,1,1.1,16
2017/11/5 6:05,0.5,1,0.5,1,1.1,16
2017/11/5 6:06,0.6,1,0.6,1,1.4,11
2017/11/5 6:07,0.7,16,0.7,16,1.6,11
2017/11/5 6:08,0.8,15,0.8,16,1.5,11
2017/11/5 6:09,0.8,13,0.8,16,1.3,11
2017/11/5 6:10,0.7,13,0.8,16,0.1,11
2017/11/5 6:11,0.8,13,0.8,16,0.8,1
2017/11/5 6:12,0.8,13,0.8,16,2.5,1
2017/11/5 6:13,0.9,13,0.9,13,2.7,1
2017/11/5 6:14,1.1,13,1.1,13,2.9,1
2017/11/5 6:15,1.1,14,1.1,13,1.6,2
2017/11/5 6:16,1.1,15,1.2,14,1.6,1
2017/11/5 6:17,1.1,16,1.1,14,1.3,2
2017/11/5 6:18,1,1,1.1,14,0.9,16
2017/11/5 6:19,1,1,1,14,1.8,1
2017/11/5 6:20,1.1,2,1.1,14,1.4,2
2017/11/5 6:21,1.2,2,1.2,14,1.3,3
2017/11/5 6:22,1.1,2,1.2,14,1.3,3
2017/11/5 6:23,0.9,2,1.1,14,1.1,3
2017/11/5 6:24,0.8,2,0.9,14,2,1
2017/11/5 6:25,0.8,2,0.8,14,1.4,16
2017/11/5 6:26,0.7,2,0.8,2,0.5,14
2017/11/5 6:27,0.6,2,0.7,2,0.6,5
2017/11/5 6:28,0.7,2,0.7,2,1.3,4
2017/11/5 6:29,0.6,2,0.7,2,0.9,4
2017/11/5 6:30,0.5,2,0.6,2,0.5,15
2017/11/5 6:31,0.5,2,0.5,2,0.8,6
2017/11/5 6:32,0.5,2,0.5,2,0.9,6
2017/11/5 6:33,0.4,3,0.4,2,0.9,4
2017/11/5 6:34,0.4,3,0.4,2,0.6,4
2017/11/5 6:35,0.3,3,0.4,2,0.3,3
2017/11/5 6:36,0.3,3,0.3,2,0.8,2
2017/11/5 6:37,0.4,3,0.4,2,0.8,1
2017/11/5 6:38,0.4,2,0.4,2,1,1
2017/11/5 6:39,0.4,2,0.4,2,1.1,2
2017/11/5 6:40,0.4,2,0.4,2,1.4,16
2017/11/5 6:41,0.4,2,0.4,2,1.1,16
2017/11/5 6:42,0.4,1,0.4,2,0.8,1
2017/11/5 6:43,0.4,2,0.4,3,0.4,8
2017/11/5 6:44,0.4,2,0.4,3,1,5
2017/11/5 6:45,0.6,2,0.6,2,1.6,3
2017/11/5 6:46,0.6,2,0.6,2,2,4
2017/11/5 6:47,0.6,3,0.6,2,0.6,4
2017/11/5 6:48,0.6,3,0.6,2,0.3,10
2017/11/5 6:49,0.5,3,0.6,2,0.4,1
2017/11/5 6:50,0.5,3,0.5,2,0.4,15
2017/11/5 6:51,0.4,3,0.5,2,0.4,16
2017/11/5 6:52,0.4,3,0.4,2,0.5,16
2017/11/5 6:53,0.4,2,0.4,2,0.3,16
2017/11/5 6:54,0.4,1,0.4,2,0.6,14
2017/11/5 6:55,0.2,16,0.4,2,0.3,13
2017/11/5 6:56,0.1,16,0.2,2,0.6,4
2017/11/5 6:57,0.2,16,0.2,3,0.8,2
2017/11/5 6:58,0.2,1,0.2,3,0.1,15
2017/11/5 6:59,0.1,2,0.2,2,0.3,5
2017/11/5 7:00,0.1,2,0.1,3,0.1,10
2017/11/5 7:01,0.1,2,0.1,3,0.1,9
2017/11/5 7:02,0.1,1,0.1,3,0.3,13
2017/11/5 7:03,0.1,16,0.1,2,0.6,13
2017/11/5 7:04,0.1,16,0.1,1,0.3,13
2017/11/5 7:05,0.1,2,0.1,16,0.3,6
2017/11/5 7:06,0.1,3,0.1,16,1,7
2017/11/5 7:07,0.2,5,0.2,16,1.1,6
2017/11/5 7:08,0.2,7,0.2,1,0.8,7
2017/11/5 7:09,0.2,10,0.2,3,0.3,15
2017/11/5 7:10,0.2,11,0.2,3,0.3,10
2017/11/5 7:11,0.3,12,0.3,12,0.5,1
2017/11/5 7:12,0.3,11,0.3,12,0.4,5
2017/11/5 7:13,0.3,5,0.3,12,0.4,5
2017/11/5 7:14,0.3,6,0.3,12,0.3,15
2017/11/5 7:15,0.3,7,0.3,12,1.3,16
2017/11/5 7:16,0.3,16,0.3,12,1.4,16
2017/11/5 7:17,0.2,16,0.3,12,0.6,2
2017/11/5 7:18,0.2,1,0.2,12,0.5,4
2017/11/5 7:19,0.3,2,0.3,12,0.8,6
2017/11/5 7:20,0.3,2,0.3,12,1.1,16
2017/11/5 7:21,0.3,2,0.3,12,1.4,16
2017/11/5 7:22,0.4,1,0.4,2,1.3,15
2017/11/5 7:23,0.4,1,0.4,2,0.4,1
2017/11/5 7:24,0.4,1,0.4,2,0.8,12
2017/11/5 7:25,0.4,2,0.4,2,1.3,6
2017/11/5 7:26,0.4,3,0.4,2,1.1,6
2017/11/5 7:27,0.4,3,0.4,2,0.8,7
2017/11/5 7:28,0.4,3,0.4,2,1,3
2017/11/5 7:29,0.4,3,0.4,2,0.9,4
2017/11/5 7:30,0.4,4,0.4,2,0.5,4
2017/11/5 7:31,0.3,4,0.4,2,0.1,2
2017/11/5 7:32,0.3,5,0.3,1,0.8,6
2017/11/5 7:33,0.3,5,0.3,1,0.8,6
2017/11/5 7:34,0.4,4,0.4,1,0.8,3
2017/11/5 7:35,0.4,4,0.4,2,1,2
2017/11/5 7:36,0.3,3,0.3,3,0.9,1
2017/11/5 7:37,0.3,3,0.3,3,0.3,2
2017/11/5 7:38,0.3,3,0.3,3,0.8,6
2017/11/5 7:39,0.3,4,0.3,3,0.9,5
2017/11/5 7:40,0.3,4,0.3,4,0.9,5
2017/11/5 7:41,0.4,4,0.4,5,0.9,4
2017/11/5 7:42,0.5,4,0.5,4,1.8,6
2017/11/5 7:43,0.5,4,0.5,4,1.6,6
2017/11/5 7:44,0.5,5,0.5,4,1,7
2017/11/5 7:45,0.5,5,0.5,4,0.5,7
2017/11/5 7:46,0.5,5,0.5,4,1.1,9
2017/11/5 7:47,0.5,6,0.5,4,0.9,8
2017/11/5 7:48,0.5,6,0.5,4,0.3,8
2017/11/5 7:49,0.5,6,0.5,4,0.4,2
2017/11/5 7:50,0.5,6,0.5,4,1.1,3
2017/11/5 7:51,0.5,6,0.5,4,1,3
2017/11/5 7:52,0.4,7,0.5,4,1,9
2017/11/5 7:53,0.3,7,0.4,4,1,8
2017/11/5 7:54,0.3,7,0.3,5,0.9,6
2017/11/5 7:55,0.3,7,0.3,5,0.4,6
2017/11/5 7:56,0.2,6,0.3,5,0.4,4
2017/11/5 7:57,0.3,6,0.3,6,1.4,7
2017/11/5 7:58,0.4,6,0.4,6,1.8,6
2017/11/5 7:59,0.5,6,0.5,6,1.5,10
2017/11/5 8:00,0.5,7,0.5,6,1.4,7
2017/11/5 8:01,0.5,7,0.5,6,1.4,8
2017/11/5 8:02,0.5,6,0.5,6,1,8
2017/11/5 8:03,0.5,6,0.5,6,1.5,7
2017/11/5 8:04,0.5,6,0.6,6,0.8,6
2017/11/5 8:05,0.5,7,0.6,6,0.8,7
2017/11/5 8:06,0.6,7,0.6,6,0.9,6
2017/11/5 8:07,0.6,7,0.6,6,1,6
2017/11/5 8:08,0.5,7,0.6,6,1.6,9
2017/11/5 8:09,0.6,7,0.6,6,2.1,8
2017/11/5 8:10,0.6,7,0.6,6,1.3,8
2017/11/5 8:11,0.5,7,0.6,6,0.4,8
2017/11/5 8:12,0.5,7,0.5,6,0.6,11
2017/11/5 8:13,0.5,8,0.5,6,0.8,14
2017/11/5 8:14,0.5,9,0.5,6,0.6,12
2017/11/5 8:15,0.5,8,0.5,7,1,6
2017/11/5 8:16,0.6,9,0.6,7,1.9,8
2017/11/5 8:17,0.6,9,0.6,7,2,7
2017/11/5 8:18,0.7,9,0.7,9,2.1,6
2017/11/5 8:19,0.7,8,0.7,9,1.6,5
2017/11/5 8:20,0.7,8,0.7,9,1.1,9
2017/11/5 8:21,0.7,8,0.7,9,1.1,9
2017/11/5 8:22,0.7,8,0.7,9,1.1,8
2017/11/5 8:23,0.7,7,0.8,7,1.5,8
2017/11/5 8:24,0.8,7,0.8,7,1.1,8
2017/11/5 8:25,0.8,7,0.8,7,1,9
2017/11/5 8:26,0.7,7,0.8,7,2,8
2017/11/5 8:27,0.7,8,0.7,7,2.1,9
2017/11/5 8:28,0.5,8,0.6,7,1.5,11
2017/11/5 8:29,0.5,9,0.5,7,1.1,7
2017/11/5 8:30,0.5,8,0.5,7,1.1,7
2017/11/5 8:31,0.5,8,0.6,7,1.3,7
2017/11/5 8:32,0.6,8,0.6,7,1.1,5
2017/11/5 8:33,0.6,8,0.6,7,1.5,9
2017/11/5 8:34,0.6,8,0.6,7,1.3,11
2017/11/5 8:35,0.6,8,0.6,7,1.5,8
2017/11/5 8:36,0.7,8,0.7,7,1.9,9
2017/11/5 8:37,0.7,8,0.7,8,1.3,8
2017/11/5 8:38,0.7,8,0.7,8,1,7
2017/11/5 8:39,0.7,8,0.7,8,1.1,8
2017/11/5 8:40,0.6,7,0.7,8,0.1,4
2017/11/5 8:41,0.6,7,0.6,8,0.3,7
2017/11/5 8:42,0.5,8,0.6,8,0.8,7
2017/11/5 8:43,0.5,8,0.5,8,0.9,8
2017/11/5 8:44,0.5,8,0.5,8,1.4,12
2017/11/5 8:45,0.5,8,0.5,8,1.3,10
2017/11/5 8:46,0.4,8,0.5,8,1.3,8
2017/11/5 8:47,0.4,8,0.4,8,1.3,8
2017/11/5 8:48,0.5,8,0.5,8,1.9,7
2017/11/5 8:49,0.5,7,0.5,8,1.5,5
2017/11/5 8:50,0.6,8,0.6,7,0.8,3
2017/11/5 8:51,0.6,8,0.6,7,0.8,6
2017/11/5 8:52,0.6,9,0.6,8,1.4,8
2017/11/5 8:53,0.7,8,0.7,8,2,8
2017/11/5 8:54,0.8,8,0.8,8,2.4,8
2017/11/5 8:55,0.7,8,0.8,8,1.3,10
2017/11/5 8:56,0.8,8,0.8,8,1.1,6
2017/11/5 8:57,0.8,8,0.8,8,1.5,8
2017/11/5 8:58,0.8,8,0.8,8,1.8,9
2017/11/5 8:59,0.8,8,0.8,8,1.5,8
2017/11/5 9:00,0.8,8,0.8,8,1.4,7
2017/11/5 9:01,0.9,8,0.9,8,1,7
2017/11/5 9:02,0.8,8,0.9,8,0.5,6
2017/11/5 9:03,0.7,8,0.8,8,0.6,12
2017/11/5 9:04,0.6,8,0.7,8,1,11
2017/11/5 9:05,0.7,8,0.7,8,1.6,8
2017/11/5 9:06,0.6,9,0.7,8,2,10
2017/11/5 9:07,0.7,9,0.7,8,2.5,9
2017/11/5 9:08,0.7,9,0.7,8,2,9
2017/11/5 9:09,0.7,9,0.7,8,2.1,8
2017/11/5 9:10,0.7,10,0.7,8,2.2,10
2017/11/5 9:11,0.7,10,0.7,8,0.8,9
2017/11/5 9:12,0.7,10,0.7,8,1.8,9
2017/11/5 9:13,0.8,9,0.8,10,2.2,9
2017/11/5 9:14,0.9,9,0.9,9,2,9
2017/11/5 9:15,0.9,9,0.9,9,1.4,10
2017/11/5 9:16,0.9,9,1,9,1.8,10
2017/11/5 9:17,0.9,10,0.9,9,1.5,9
2017/11/5 9:18,0.9,10,0.9,9,0.8,9
2017/11/5 9:19,0.8,9,0.8,9,1.3,8
2017/11/5 9:20,0.8,10,0.8,9,1.3,9
2017/11/5 9:21,0.9,10,0.9,9,2.9,9
2017/11/5 9:22,1,10,1,9,2.5,8
2017/11/5 9:23,1,10,1,9,2.5,8
2017/11/5 9:24,0.9,10,1,9,2.1,8
2017/11/5 9:25,0.9,9,1,9,2,9
2017/11/5 9:26,0.9,9,0.9,10,1.9,7
2017/11/5 9:27,0.9,9,1,10,2,8
2017/11/5 9:28,1,9,1,10,1.5,9
2017/11/5 9:29,1,9,1,10,1.3,10
2017/11/5 9:30,1,8,1,10,0.5,10
2017/11/5 9:31,0.9,8,1,10,2.1,8
2017/11/5 9:32,0.9,8,0.9,10,1.8,8
2017/11/5 9:33,0.8,8,0.9,10,1.6,8
2017/11/5 9:34,0.7,8,0.8,10,1,9
2017/11/5 9:35,0.8,8,0.8,9,1.8,8
2017/11/5 9:36,0.9,8,0.9,9,4.1,9
2017/11/5 9:37,1,9,1,9,4.9,8
2017/11/5 9:38,1.2,8,1.2,8,4.3,7
2017/11/5 9:39,1.4,8,1.4,8,4.4,8
2017/11/5 9:40,1.6,8,1.6,8,3.7,9
2017/11/5 9:41,1.7,8,1.7,8,2.9,8
2017/11/5 9:42,1.8,8,1.8,8,3.2,8
2017/11/5 9:43,2,9,2,8,3.5,8
2017/11/5 9:44,2.1,8,2.1,8,2.5,8
2017/11/5 9:45,2.2,8,2.2,8,3.8,8
2017/11/5 9:46,2.1,8,2.2,8,3.9,8
2017/11/5 9:47,2,8,2.1,8,2.4,9
2017/11/5 9:48,1.9,8,2,8,3.2,10
2017/11/5 9:49,1.8,8,1.9,8,1.5,9
2017/11/5 9:50,1.7,8,1.7,8,3,8
2017/11/5 9:51,1.7,8,1.7,8,3.2,8
2017/11/5 9:52,1.6,8,1.7,8,1.3,8
2017/11/5 9:53,1.4,8,1.5,8,1.8,9
2017/11/5 9:54,1.5,8,1.5,8,3.9,8
2017/11/5 9:55,1.5,9,1.5,8,3.6,8
2017/11/5 9:56,1.5,9,1.5,8,4.3,9
2017/11/5 9:57,1.5,9,1.5,8,3.9,8
2017/11/5 9:58,1.5,9,1.5,8,3.5,9
2017/11/5 9:59,1.5,9,1.5,8,2.2,8
2017/11/5 10:00,1.5,9,1.5,8,3,9
2017/11/5 10:01,1.5,9,1.5,8,2.9,9
2017/11/5 10:02,1.7,9,1.7,9,3.6,8
2017/11/5 10:03,1.8,9,1.8,9,3.3,8
2017/11/5 10:04,1.7,9,1.8,9,3.5,8
2017/11/5 10:05,1.6,9,1.7,9,2.4,9
2017/11/5 10:06,1.6,9,1.6,9,3.3,9
2017/11/5 10:07,1.6,9,1.6,9,3,9
2017/11/5 10:08,1.6,9,1.6,9,3.3,8
2017/11/5 10:09,1.8,8,1.8,9,3.6,8
2017/11/5 10:10,1.8,8,1.8,9,2.6,7
2017/11/5 10:11,1.7,8,1.8,9,2.2,8
2017/11/5 10:12,1.7,9,1.7,9,3.7,8
2017/11/5 10:13,1.7,9,1.7,9,2.5,11
2017/11/5 10:14,1.7,9,1.7,8,2.4,10
2017/11/5 10:15,1.6,9,1.7,8,1.1,12
2017/11/5 10:16,1.5,10,1.6,8,0.8,12
2017/11/5 10:17,1.5,10,1.5,8,2.5,8
2017/11/5 10:18,1.5,10,1.5,8,2.9,8
2017/11/5 10:19,1.3,10,1.4,8,1.5,8
2017/11/5 10:20,1.2,10,1.3,8,2.2,9
2017/11/5 10:21,1.2,10,1.2,8,2.5,9
2017/11/5 10:22,1.1,10,1.2,9,2.6,11
2017/11/5 10:23,1.1,10,1.1,9,1.6,11
2017/11/5 10:24,1,11,1.1,9,1.4,12
2017/11/5 10:25,1.1,10,1.1,9,3.1,10
2017/11/5 10:26,1.1,10,1.1,10,1.1,9
2017/11/5 10:27,1,10,1.1,10,3,9
2017/11/5 10:28,1.1,10,1.1,10,3.2,8
2017/11/5 10:29,1.2,10,1.2,10,3.9,9
2017/11/5 10:30,1.3,10,1.3,10,3.7,8
2017/11/5 10:31,1.4,10,1.4,10,3.5,10
2017/11/5 10:32,1.5,9,1.5,10,3.3,10
2017/11/5 10:33,1.6,9,1.6,9,3,8
2017/11/5 10:34,1.7,9,1.7,9,2.5,8
2017/11/5 10:35,1.8,9,1.8,9,3.3,8
2017/11/5 10:36,1.9,8,1.9,8,2.1,7
2017/11/5 10:37,1.8,8,1.9,8,1.6,9
2017/11/5 10:38,1.7,8,1.8,8,3,8
2017/11/5 10:39,1.6,8,1.7,8,3.3,8
2017/11/5 10:40,1.6,8,1.6,8,3.6,8
2017/11/5 10:41,1.6,8,1.7,8,2.4,8
2017/11/5 10:42,1.7,8,1.7,8,2.9,8
2017/11/5 10:43,1.7,8,1.7,8,3.1,9
2017/11/5 10:44,1.7,8,1.7,8,3.2,10
2017/11/5 10:45,1.5,8,1.6,8,1.6,9
2017/11/5 10:46,1.4,8,1.5,8,2.5,7
2017/11/5 10:47,1.5,8,1.5,8,2.5,8
2017/11/5 10:48,1.5,8,1.6,8,2.7,8
2017/11/5 10:49,1.5,8,1.5,8,3.3,8
2017/11/5 10:50,1.6,9,1.6,8,3.7,9
2017/11/5 10:51,1.6,9,1.6,8,3,8
2017/11/5 10:52,1.6,9,1.6,8,3,8
2017/11/5 10:53,1.5,9,1.6,8,3.5,9
2017/11/5 10:54,1.5,9,1.5,8,3.5,8
2017/11/5 10:55,1.5,9,1.6,8,1.8,9
2017/11/5 10:56,1.5,9,1.5,8,2.1,7
2017/11/5 10:57,1.6,9,1.6,8,2.6,7
2017/11/5 10:58,1.6,8,1.6,9,2.2,7
2017/11/5 10:59,1.5,8,1.6,9,1.9,6
2017/11/5 11:00,1.4,8,1.5,9,1.5,9
2017/11/5 11:01,1.3,8,1.4,9,2.4,10
2017/11/5 11:02,1.2,8,1.3,9,2.5,9
2017/11/5 11:03,1.3,8,1.3,9,3.7,10
2017/11/5 11:04,1.2,8,1.3,9,2,8
2017/11/5 11:05,1.3,8,1.3,9,3.8,9
2017/11/5 11:06,1.5,8,1.5,9,4.1,9
2017/11/5 11:07,1.6,8,1.6,9,3.7,9
2017/11/5 11:08,1.6,8,1.6,8,3.3,9
2017/11/5 11:09,1.7,9,1.7,9,3.1,10
2017/11/5 11:10,1.6,9,1.7,9,1.1,14
2017/11/5 11:11,1.7,10,1.7,9,2.1,13
2017/11/5 11:12,1.7,10,1.7,9,3.1,11
2017/11/5 11:13,1.6,10,1.7,9,3.1,9
2017/11/5 11:14,1.7,10,1.7,9,3.3,11